Omaha, NE

3:26 AM CST on February 07, 2016 (GMT -0600)
Millard Municipal

Weather History for KMLE - May, 2013

Change the Weather History Date:

Sunday, May 12, 2013

  Actual Average (KOMA) Record (KOMA)
Temperature  
Mean Temperature 50 °F 61 °F  
Max Temperature 65 °F 73 °F 93 °F (1956)
Min Temperature 34 °F 50 °F 32 °F (2013)
Degree Days  
Heating Degree Days 16 6  
Month to date heating degree days 82  
Since 1 July heating degree days 6084  
Cooling Degree Days 0 2  
Month to date cooling degree days 13  
Year to date cooling degree days 29  
Moisture  
Dew Point 30 °F    
Average Humidity 49    
Maximum Humidity 89    
Minimum Humidity 23    
Precipitation  
Precipitation 0.00 in 0.16 in 1.21 in (1908)
Month to date precipitation 1.72  
Year to date precipitation 8.24  
Snow  
Snow 0.00 in 0.00 in - ()
Month to date snowfall 0.1  
Since 1 July snowfall 26.5  
Snow Depth -    
Sea Level Pressure  
Sea Level Pressure 30.21 in    
Wind  
Wind Speed 0 mph (SE)    
Max Wind Speed 5 mph    
Max Gust Speed -    
Visibility 10 miles    
Events      
T = Trace of Precipitation, MM = Missing Value Source: NWS Daily Summary

Daily Weather History Graph

Daily Weather History Graph

Search for Another Location

Airport or City:

Trip Planner

Search our weather history database for the weather conditions in past years. The results will help you decide how hot, cold, wet, or windy it might be!

Date:

Astronomy

May. 12, 2013 Rise Set
Actual Time 6:08 AM CDT 8:33 PM CDT
Civil Twilight 5:37 AM CDT 9:04 PM CDT
Nautical Twilight 4:59 AM CDT 9:43 PM CDT
Astronomical Twilight 4:16 AM CDT 10:26 PM CDT
Moon 8:04 AM CDT (5/12) 11:01 PM CDT (5/12)
Length of Visible Light 15h 26m
Length of Day
14h 24m
Waxing Crescent, 7% of the Moon is Illuminated
May 12
Waxing Crescent
May 17
First Quarter
May 24
Full
May 31
Last Quarter
Jun 8
New

Hourly Weather History & Observations

Time (CDT) Temp. Dew Point Humidity Pressure Visibility Wind Dir Wind Speed Gust Speed Precip Events Conditions
12:15 AM 42.3 °F 32.9 °F 69% 30.25 in 10.0 mi Calm Calm - N/A   Clear
12:35 AM 41.7 °F 32.5 °F 70% 30.26 in 10.0 mi Calm Calm - N/A   Clear
12:55 AM 41.0 °F 32.5 °F 72% 30.26 in 10.0 mi Calm Calm - N/A   Clear
1:15 AM 40.6 °F 33.8 °F 77% 30.26 in 10.0 mi Calm Calm - N/A   Clear
1:35 AM 40.3 °F 32.9 °F 75% 30.26 in 10.0 mi Calm Calm - N/A   Clear
1:55 AM 40.1 °F 32.7 °F 75% 30.26 in 10.0 mi Calm Calm - N/A   Clear
2:15 AM 39.4 °F 33.1 °F 78% 30.26 in 10.0 mi Calm Calm - N/A   Clear
2:35 AM 38.5 °F 33.1 °F 81% 30.26 in 10.0 mi Calm Calm - N/A   Clear
2:55 AM 38.3 °F 30.7 °F 74% 30.25 in 10.0 mi Calm Calm - N/A   Clear
3:15 AM 37.8 °F 31.8 °F 79% 30.26 in 10.0 mi Calm Calm - N/A   Clear
3:35 AM 38.3 °F 30.7 °F 74% 30.26 in 10.0 mi Calm Calm - N/A   Clear
3:55 AM 37.9 °F 30.6 °F 75% 30.26 in 10.0 mi Calm Calm - N/A   Clear
4:35 AM 36.1 °F 31.1 °F 82% 30.26 in 10.0 mi Calm Calm - N/A   Clear
4:55 AM 35.6 °F 31.3 °F 84% 30.26 in 10.0 mi Calm Calm - N/A   Clear
5:15 AM 35.1 °F 32.0 °F 89% 30.27 in 10.0 mi Calm Calm - N/A   Clear
5:35 AM 35.1 °F 30.0 °F 82% 30.27 in 10.0 mi Calm Calm - N/A   Clear
5:55 AM 34.7 °F 31.1 °F 87% 30.28 in 10.0 mi Calm Calm - N/A   Clear
6:15 AM 34.9 °F 30.9 °F 85% 30.28 in 10.0 mi Calm Calm - N/A   Clear
6:35 AM 34.7 °F 30.4 °F 84% 30.28 in 10.0 mi Calm Calm - N/A   Clear
6:55 AM 35.8 °F 29.8 °F 79% 30.29 in 10.0 mi Calm Calm - N/A   Clear
7:15 AM 37.0 °F 31.3 °F 80% 30.30 in 10.0 mi Calm Calm - N/A   Clear
7:35 AM 39.2 °F 32.4 °F 76% 30.29 in 10.0 mi Calm Calm - N/A   Scattered Clouds
7:55 AM 42.1 °F 32.2 °F 68% 30.28 in 10.0 mi Calm Calm - N/A   Scattered Clouds
8:15 AM 43.2 °F 32.5 °F 66% 30.28 in 10.0 mi Calm Calm - N/A   Scattered Clouds
8:35 AM 46.4 °F 32.7 °F 59% 30.28 in 10.0 mi Calm Calm - N/A   Scattered Clouds
8:55 AM 48.7 °F 26.4 °F 42% 30.28 in 10.0 mi Calm Calm - N/A   Scattered Clouds
9:15 AM 51.1 °F 26.6 °F 39% 30.28 in 10.0 mi Calm Calm - N/A   Scattered Clouds
9:35 AM 51.1 °F 23.9 °F 35% 30.28 in 10.0 mi Calm Calm - N/A   Mostly Cloudy
9:55 AM 51.8 °F 24.6 °F 35% 30.28 in 10.0 mi Calm Calm - N/A   Overcast
10:15 AM 53.2 °F 26.6 °F 36% 30.28 in 10.0 mi South 3.5 mph - N/A   Mostly Cloudy
10:35 AM 53.8 °F 27.3 °F 36% 30.28 in 10.0 mi SE 4.6 mph - N/A   Overcast
10:55 AM 54.1 °F 27.3 °F 36% 30.28 in 10.0 mi Calm Calm - N/A   Mostly Cloudy
11:15 AM 54.5 °F 24.3 °F 31% 30.27 in 10.0 mi Calm Calm - N/A   Mostly Cloudy
11:35 AM 54.9 °F 24.4 °F 31% 30.27 in 10.0 mi Calm Calm - N/A   Mostly Cloudy
11:55 AM 55.8 °F 23.9 °F 29% 30.26 in 10.0 mi Calm Calm - N/A   Scattered Clouds
12:15 PM 56.3 °F 25.7 °F 31% 30.25 in 10.0 mi Calm Calm - N/A   Clear
12:35 PM 57.2 °F 25.9 °F 30% 30.25 in 10.0 mi SSE 3.5 mph - N/A   Clear
12:55 PM 57.6 °F 26.2 °F 30% 30.24 in 10.0 mi Calm Calm - N/A   Scattered Clouds
1:15 PM 58.6 °F 27.5 °F 30% 30.23 in 10.0 mi Calm Calm - N/A   Clear
1:35 PM 59.0 °F 27.3 °F 30% 30.22 in 10.0 mi NNW 3.5 mph - N/A   Clear
1:55 PM 59.0 °F 25.9 °F 28% 30.22 in 10.0 mi Calm Calm - N/A   Clear
2:15 PM 59.9 °F 26.6 °F 28% 30.21 in 10.0 mi Calm Calm - N/A   Clear
2:35 PM 60.4 °F 27.7 °F 29% 30.21 in 10.0 mi SSE 3.5 mph - N/A   Clear
2:55 PM 61.2 °F 28.8 °F 29% 30.19 in 10.0 mi Calm Calm - N/A   Clear
3:15 PM 61.3 °F 26.8 °F 27% 30.19 in 10.0 mi Calm Calm - N/A   Clear
3:35 PM 62.2 °F 27.5 °F 27% 30.18 in 10.0 mi Calm Calm - N/A   Clear
3:55 PM 62.4 °F 28.8 °F 28% 30.17 in 10.0 mi SSE 4.6 mph - N/A   Clear
4:15 PM 62.6 °F 28.2 °F 27% 30.16 in 10.0 mi Calm Calm - N/A   Clear
4:35 PM 63.5 °F 27.9 °F 26% 30.16 in 10.0 mi South 4.6 mph - N/A   Clear
4:55 PM 63.9 °F 27.1 °F 25% 30.16 in 10.0 mi Calm Calm - N/A   Clear
5:15 PM 64.6 °F 28.4 °F 26% 30.15 in 0.8 mi ESE 4.6 mph - N/A   Haze
5:35 PM 64.9 °F 28.8 °F 26% 30.15 in 10.0 mi Calm Calm - N/A   Clear
5:55 PM 64.8 °F 28.8 °F 26% 30.14 in 10.0 mi North 3.5 mph - N/A   Clear
6:15 PM 64.4 °F 27.7 °F 25% 30.14 in 10.0 mi Calm Calm - N/A   Clear
6:35 PM 65.3 °F 30.4 °F 27% 30.13 in 10.0 mi Calm Calm - N/A   Clear
6:55 PM 64.9 °F 30.9 °F 28% 30.12 in 10.0 mi SE 3.5 mph - N/A   Clear
7:15 PM 63.9 °F 29.3 °F 27% 30.11 in 10.0 mi ESE 3.5 mph - N/A   Clear
7:35 PM 65.1 °F 25.7 °F 23% 30.11 in 10.0 mi Calm Calm - N/A   Clear
7:55 PM 63.9 °F 27.3 °F 25% 30.11 in 10.0 mi SE 3.5 mph - N/A   Clear
8:15 PM 62.6 °F 29.3 °F 28% 30.11 in 10.0 mi Calm Calm - N/A   Clear
8:35 PM 58.8 °F 33.4 °F 38% 30.11 in 10.0 mi Calm Calm - N/A   Clear
8:55 PM 57.6 °F 32.5 °F 39% 30.11 in 10.0 mi Calm Calm - N/A   Clear
9:15 PM 55.9 °F 32.0 °F 40% 30.12 in 10.0 mi Calm Calm - N/A   Clear
9:35 PM 55.4 °F 32.2 °F 41% 30.12 in 10.0 mi Calm Calm - N/A   Clear
9:55 PM 54.9 °F 33.6 °F 45% 30.12 in 10.0 mi Calm Calm - N/A   Clear
10:15 PM 54.0 °F 32.9 °F 45% 30.12 in 10.0 mi Calm Calm - N/A   Clear
10:35 PM 52.9 °F 34.0 °F 49% 30.12 in 10.0 mi Calm Calm - N/A   Clear
10:55 PM 52.2 °F 34.5 °F 51% 30.12 in 10.0 mi Calm Calm - N/A   Clear
11:15 PM 52.0 °F 33.8 °F 50% 30.12 in 10.0 mi Calm Calm - N/A   Clear
11:35 PM 50.9 °F 34.7 °F 54% 30.12 in 10.0 mi Calm Calm - N/A   Clear
11:55 PM 51.1 °F 34.2 °F 52% 30.12 in 10.0 mi Calm Calm - N/A   Clear